TimeCDT,TemperatureF,Dew PointF,Humidity,Sea Level PressureIn,VisibilityMPH,Wind Direction,Wind SpeedMPH,Gust SpeedMPH,PrecipitationIn,Events,Conditions,WindDirDegrees,DateUTC
12:12 AM,33.8,24.8,70,30.34,10.0,SW,6.9,-,N/A,,Overcast,230,2012-10-27 05:12:00
12:33 AM,33.8,24.8,70,30.34,10.0,SW,5.8,-,N/A,,Overcast,230,2012-10-27 05:33:00
12:53 AM,32.0,23.0,69,30.34,10.0,SW,4.6,-,N/A,,Overcast,220,2012-10-27 05:53:00
1:12 AM,30.2,23.0,75,30.34,10.0,SW,4.6,-,N/A,,Mostly Cloudy,220,2012-10-27 06:12:00
1:33 AM,30.2,23.0,75,30.34,10.0,SSW,4.6,-,N/A,,Scattered Clouds,210,2012-10-27 06:33:00
1:53 AM,28.4,23.0,80,30.33,10.0,SSW,4.6,-,N/A,,Clear,210,2012-10-27 06:53:00
2:12 AM,28.4,23.0,80,30.33,10.0,SSW,3.5,-,N/A,,Clear,210,2012-10-27 07:12:00
2:52 AM,26.6,23.0,86,30.32,10.0,SSW,4.6,-,N/A,,Clear,210,2012-10-27 07:52:00
3:12 AM,26.6,21.2,80,30.32,10.0,SW,4.6,-,N/A,,Clear,220,2012-10-27 08:12:00
3:32 AM,26.6,21.2,80,30.32,10.0,SW,4.6,-,N/A,,Clear,230,2012-10-27 08:32:00
3:52 AM,26.6,21.2,80,30.32,10.0,Calm,Calm,-,N/A,,Clear,0,2012-10-27 08:52:00
4:13 AM,26.6,21.2,80,30.31,10.0,SSW,3.5,-,N/A,,Clear,210,2012-10-27 09:13:00
4:32 AM,26.6,21.2,80,30.32,10.0,SW,3.5,-,N/A,,Clear,220,2012-10-27 09:32:00
4:52 AM,26.6,21.2,80,30.32,10.0,Calm,Calm,-,N/A,,Clear,0,2012-10-27 09:52:00
5:13 AM,24.8,21.2,86,30.32,10.0,Calm,Calm,-,N/A,,Clear,0,2012-10-27 10:13:00
5:32 AM,24.8,21.2,86,30.32,10.0,South,3.5,-,N/A,,Clear,190,2012-10-27 10:32:00
5:52 AM,24.8,21.2,86,30.33,10.0,SSW,3.5,-,N/A,,Clear,200,2012-10-27 10:52:00
6:13 AM,24.8,21.2,86,30.33,10.0,South,3.5,-,N/A,,Clear,190,2012-10-27 11:13:00
6:32 AM,24.8,21.2,86,30.33,10.0,South,3.5,-,N/A,,Clear,180,2012-10-27 11:32:00
6:52 AM,24.8,21.2,86,30.33,10.0,South,3.5,-,N/A,,Clear,180,2012-10-27 11:52:00
7:13 AM,24.8,21.2,86,30.33,10.0,South,4.6,-,N/A,,Clear,180,2012-10-27 12:13:00
7:32 AM,24.8,21.2,86,30.33,10.0,Calm,Calm,-,N/A,,Clear,0,2012-10-27 12:32:00
7:52 AM,21.2,21.2,100,30.34,10.0,Calm,Calm,-,N/A,,Clear,0,2012-10-27 12:52:00
8:13 AM,24.8,21.2,86,30.34,10.0,South,3.5,-,N/A,,Clear,180,2012-10-27 13:13:00
8:32 AM,24.8,21.2,86,30.34,10.0,Calm,Calm,-,N/A,,Clear,0,2012-10-27 13:32:00
8:53 AM,26.6,23.0,86,30.34,10.0,Calm,Calm,-,N/A,,Clear,0,2012-10-27 13:53:00
9:32 AM,30.2,24.8,80,30.35,10.0,SSW,3.5,-,N/A,,Clear,210,2012-10-27 14:32:00
10:13 AM,33.8,24.8,70,30.35,10.0,WSW,6.9,-,N/A,,Clear,240,2012-10-27 15:13:00
10:32 AM,35.6,24.8,65,30.35,10.0,SW,5.8,-,N/A,,Clear,230,2012-10-27 15:32:00
10:53 AM,35.6,24.8,65,30.35,10.0,SW,8.1,-,N/A,,Clear,220,2012-10-27 15:53:00
11:13 AM,37.4,24.8,60,30.34,10.0,SW,8.1,-,N/A,,Clear,220,2012-10-27 16:13:00
11:32 AM,37.4,21.2,52,30.34,10.0,SSW,9.2,-,N/A,,Clear,210,2012-10-27 16:32:00
11:53 AM,37.4,21.2,52,30.34,10.0,SW,9.2,-,N/A,,Clear,220,2012-10-27 16:53:00
12:13 PM,37.4,19.4,48,30.34,10.0,SSW,9.2,-,N/A,,Clear,210,2012-10-27 17:13:00
12:32 PM,37.4,21.2,52,30.33,10.0,SSW,8.1,-,N/A,,Clear,200,2012-10-27 17:32:00
12:53 PM,39.2,21.2,49,30.32,10.0,South,6.9,-,N/A,,Clear,180,2012-10-27 17:53:00
1:12 PM,39.2,19.4,45,30.31,10.0,SSW,6.9,-,N/A,,Clear,200,2012-10-27 18:12:00
1:32 PM,39.2,19.4,45,30.30,10.0,South,5.8,-,N/A,,Clear,180,2012-10-27 18:32:00
1:52 PM,39.2,21.2,49,30.30,10.0,South,5.8,-,N/A,,Clear,190,2012-10-27 18:52:00
2:12 PM,39.2,19.4,45,30.29,10.0,South,5.8,-,N/A,,Clear,190,2012-10-27 19:12:00
2:33 PM,39.2,21.2,49,30.28,10.0,South,4.6,-,N/A,,Clear,190,2012-10-27 19:33:00
2:52 PM,39.2,19.4,45,30.27,10.0,South,4.6,-,N/A,,Clear,190,2012-10-27 19:52:00
3:13 PM,39.2,19.4,45,30.26,10.0,SSE,4.6,-,N/A,,Clear,150,2012-10-27 20:13:00
3:33 PM,39.2,21.2,49,30.26,10.0,SSW,4.6,-,N/A,,Clear,210,2012-10-27 20:33:00
3:52 PM,39.2,21.2,49,30.26,10.0,SSE,3.5,-,N/A,,Clear,160,2012-10-27 20:52:00
4:13 PM,39.2,21.2,49,30.26,10.0,South,5.8,-,N/A,,Clear,180,2012-10-27 21:13:00
4:32 PM,39.2,21.2,49,30.26,10.0,South,6.9,-,N/A,,Clear,170,2012-10-27 21:32:00
4:52 PM,39.2,21.2,49,30.26,10.0,South,8.1,-,N/A,,Clear,190,2012-10-27 21:52:00
5:13 PM,39.2,21.2,49,30.26,10.0,SSE,5.8,-,N/A,,Clear,160,2012-10-27 22:13:00
5:32 PM,37.4,21.2,52,30.26,10.0,SSE,6.9,-,N/A,,Clear,160,2012-10-27 22:32:00
5:52 PM,37.4,21.2,52,30.26,10.0,SSE,5.8,-,N/A,,Scattered Clouds,160,2012-10-27 22:52:00
6:13 PM,35.6,21.2,56,30.26,10.0,SE,3.5,-,N/A,,Clear,140,2012-10-27 23:13:00
6:33 PM,35.6,21.2,56,30.26,10.0,SSE,3.5,-,N/A,,Clear,150,2012-10-27 23:33:00
6:52 PM,35.6,21.2,56,30.26,10.0,ESE,3.5,-,N/A,,Clear,120,2012-10-27 23:52:00
7:13 PM,33.8,24.8,70,30.27,10.0,Calm,Calm,-,N/A,,Clear,0,2012-10-28 00:13:00
7:32 PM,33.8,24.8,70,30.27,10.0,SE,3.5,-,N/A,,Clear,130,2012-10-28 00:32:00
7:52 PM,33.8,24.8,70,30.28,10.0,Calm,Calm,-,N/A,,Clear,0,2012-10-28 00:52:00
8:13 PM,33.8,24.8,70,30.28,10.0,Calm,Calm,-,N/A,,Clear,0,2012-10-28 01:13:00
8:32 PM,33.8,24.8,70,30.29,10.0,ESE,3.5,-,N/A,,Clear,120,2012-10-28 01:32:00
8:52 PM,33.8,24.8,70,30.29,10.0,SE,5.8,-,N/A,,Clear,130,2012-10-28 01:52:00
9:13 PM,32.0,24.8,75,30.29,10.0,SE,4.6,-,N/A,,Clear,130,2012-10-28 02:13:00
9:32 PM,33.8,24.8,70,30.29,10.0,SE,5.8,-,N/A,,Clear,140,2012-10-28 02:32:00
9:52 PM,33.8,24.8,70,30.29,10.0,SE,5.8,-,N/A,,Clear,140,2012-10-28 02:52:00
10:12 PM,32.0,24.8,75,30.28,10.0,SE,5.8,-,N/A,,Clear,140,2012-10-28 03:12:00
10:32 PM,30.2,24.8,80,30.28,10.0,SSE,6.9,-,N/A,,Clear,150,2012-10-28 03:32:00
10:53 PM,32.0,24.8,75,30.28,10.0,SSE,6.9,-,N/A,,Clear,150,2012-10-28 03:53:00
11:12 PM,30.2,24.8,80,30.28,10.0,SSE,6.9,-,N/A,,Clear,150,2012-10-28 04:12:00
11:32 PM,30.2,24.8,80,30.28,10.0,SE,5.8,-,N/A,,Clear,140,2012-10-28 04:32:00
11:53 PM,30.2,24.8,80,30.28,10.0,SSE,4.6,-,N/A,,Clear,150,2012-10-28 04:53:00